Location: *
(44.1392°N, 4.8079°E)
Time: 21:44:55
(UTC+00:00)

Cosmos 2237 Rocket - Pass Details

Date: 21 June 2021
Orbit: 835 x 850 km, 71.0° (Epoch: 01 August)

Event Time Altitude Azimuth Distance (km) Brightness Sun altitude
Exits shadow 00:04:55 - 257° (WSW) 3,030 4.9 -22.2°
Reaches altitude 10° 00:07:01 10° 271° (W) 2,447 4.5 -22.2°
Maximum altitude 00:10:49 18° 314° (NW) 1,930 4.5 -22.1°
Drops below altitude 10° 00:14:39 10° 357° (N) 2,456 5.7 -22.0°
Sets 00:17:54 0° 16° (NNE) 3,395 6.8 -21.9°
